Location: Isle of Man Observatory
(54.1776°N, 4.6264°W)
Time: 12:01:28
(UTC+01:00)

ISS - Visible Passes

Search period start: 23 January 2019 00:00
Search period end: 02 February 2019 00:00
Orbit: 404 x 411 km, 51.6° (Epoch: 23 January)

Date Brightness Start Highest point End Pass type
(mag) Time Alt. Az. Time Alt. Az. Time Alt. Az.
23 Jan -1.0 20:13:33 10° S 20:13:48 11° S 20:13:48 11° S visible
24 Jan -1.4 19:23:31 10° SSE 19:24:39 11° SE 19:24:46 11° SE visible
24 Jan -0.6 20:57:26 10° SW 20:57:30 10° SW 20:57:30 10° SW visible
25 Jan -2.0 20:06:26 10° SSW 20:08:24 23° S 20:08:24 23° S visible
26 Jan -2.0 19:15:37 10° SSW 19:18:04 19° SSE 19:19:13 16° ESE visible
26 Jan -1.1 20:50:56 10° WSW 20:51:57 18° WSW 20:51:57 18° WSW visible
27 Jan -1.4 18:25:11 10° S 18:26:55 14° SE 18:28:39 10° ESE visible
27 Jan -3.0 19:59:43 10° SW 20:02:43 38° SSE 20:02:43 38° SSE visible
28 Jan -2.5 19:08:37 10° SW 19:11:32 30° SSE 19:13:26 17° ESE visible
28 Jan -1.7 20:44:31 10° WSW 20:46:09 26° WSW 20:46:09 26° WSW visible
29 Jan -3.4 19:53:11 10° WSW 19:56:25 50° S 19:56:51 46° SE visible
29 Jan -0.2 21:29:31 10° W 21:29:34 10° W 21:29:34 10° W visible
30 Jan -3.0 19:01:55 10° WSW 19:05:03 42° SSE 19:07:31 15° E visible
30 Jan -2.2 20:38:07 10° W 20:40:14 34° WSW 20:40:14 34° WSW visible
31 Jan -3.4 19:46:44 10° WSW 19:49:59 55° S 19:50:54 39° SE visible
31 Jan -0.5 21:23:10 10° W 21:23:36 13° W 21:23:36 13° W visible
01 Feb -3.3 18:55:21 10° WSW 18:58:35 52° S 19:01:34 12° E visible
01 Feb -2.6 20:31:43 10° W 20:34:16 39° SW 20:34:16 39° SW visible
